Location: Drocourt
(49.0571°N, 1.7669°E)
Time: 14:52:33
(UTC+00:00)

SR - Pass Details

Date: 20 April 2024
Orbit: 579 x 859 km, 66.7° (Epoch: 28 May)

Event Time Altitude Azimuth Distance (km) Brightness Sun altitude
Rises 11:47:32 0° 306° (NW) 2,936 ? 52.7°
Reaches altitude 10° 11:52:08 10° 263° (W) 1,955 ? 52.7°
Maximum altitude 11:52:37 10° 257° (WSW) 1,937 ? 52.7°
Drops below altitude 10° 11:53:07 10° 250° (WSW) 1,942 ? 52.7°
Sets 11:57:33 0° 206° (SSW) 2,796 ? 52.7°
